EST,Max TemperatureF,Mean TemperatureF,Min TemperatureF,Max Dew PointF,MeanDew PointF,Min DewpointF,Max Humidity, Mean Humidity, Min Humidity, Max Sea Level PressureIn, Mean Sea Level PressureIn, Min Sea Level PressureIn, Max VisibilityMiles, Mean VisibilityMiles, Min VisibilityMiles, Max Wind SpeedMPH, Mean Wind SpeedMPH, Max Gust SpeedMPH,PrecipitationIn, CloudCover, Events, WindDirDegrees
2013-1-1,73,60,46,59,52,44,93,75,50,30.20,30.09,30.01,,,,18,5,26,0.00,,,167
2013-1-2,69,65,61,66,59,55,90,82,75,30.10,30.03,29.98,,,,12,8,,0.00,,,290
2013-1-3,60,54,48,53,48,44,93,83,64,30.27,30.17,30.07,,,,10,6,,0.32,,,11
2013-1-4,57,50,43,44,42,39,90,80,62,30.35,30.30,30.26,,,,9,5,,0.00,,,15
2013-1-5,64,52,41,42,36,28,93,60,27,30.37,30.31,30.25,,,,8,3,,0.00,,,29
2013-1-6,57,54,50,52,46,39,89,78,59,30.23,30.19,30.14,,,,8,4,,0.03,,,17
2013-1-7,57,52,46,49,42,37,83,69,53,30.30,30.25,30.22,,,,12,7,17,0.01,,,29
2013-1-8,77,64,50,62,54,45,84,74,58,30.30,30.23,30.18,,,,7,5,,0.00,,,45
2013-1-9,79,71,63,67,64,61,93,83,64,30.32,30.27,30.22,,,,8,5,,0.01,,,65
2013-1-10,82,73,64,66,63,60,90,76,47,30.32,30.28,30.23,,,,13,6,17,0.01,,,118
2013-1-11,81,69,57,63,58,55,93,72,42,30.24,30.19,30.16,,,,13,6,20,0.01,,,160
2013-1-12,80,67,54,64,58,52,93,79,52,30.18,30.14,30.09,,,,14,3,18,0.01,,,173
2013-1-13,80,70,59,64,60,57,93,78,48,30.14,30.10,30.06,,,,13,5,21,0.00,,,159
2013-1-14,79,68,57,64,58,54,93,76,45,30.19,30.14,30.11,,,,15,5,22,0.01,,,160
2013-1-15,79,66,54,60,57,52,93,76,47,30.14,30.09,30.06,,,,18,4,22,0.00,,,168
2013-1-16,79,69,59,64,61,57,93,80,56,30.08,30.03,29.98,,,,15,7,21,0.00,,,167
2013-1-17,70,56,43,65,48,31,93,70,51,30.20,30.03,29.94,,,,24,11,33,0.06,,,249
2013-1-18,62,52,41,37,32,28,79,54,28,30.41,30.34,30.21,,,,14,8,23,0.00,,,26
2013-1-19,72,56,41,48,39,28,77,56,37,30.38,30.30,30.21,,,,9,5,16,0.01,,,34
2013-1-20,72,60,46,50,48,45,93,69,41,30.23,30.16,30.09,,,,9,3,,0.00,,,357
2013-1-21,68,57,46,47,43,39,93,65,36,30.17,30.11,30.06,,,,8,2,,0.00,,,317
2013-1-22,64,50,36,39,31,24,86,54,23,30.33,30.25,30.13,,,,10,5,18,0.00,,,358
2013-1-23,66,48,30,41,33,26,93,64,29,30.43,30.35,30.30,,,,8,1,,0.02,,,1
2013-1-24,73,55,37,51,44,36,93,72,33,30.33,30.28,30.23,,,,16,3,23,0.00,,,259
2013-1-25,73,62,50,53,49,47,96,74,41,30.34,30.26,30.21,,,,14,4,20,0.00,,,186
2013-1-26,75,60,46,58,53,44,96,80,53,30.26,30.21,30.17,,,,13,3,,0.01,,,243
2013-1-27,73,63,53,56,53,47,93,70,52,30.35,30.29,30.24,,,,8,4,17,0.00,,,55
2013-1-28,79,66,54,60,55,50,90,73,48,30.36,30.30,30.25,,,,16,5,22,0.00,,,113
2013-1-29,81,72,63,63,61,55,87,73,49,30.24,30.15,30.07,,,,14,6,20,0.02,,,150
2013-1-30,75,65,55,66,61,44,88,76,62,30.07,29.91,29.76,,,,30,15,45,0.16,,,190
2013-1-31,57,46,35,43,29,22,82,52,25,30.28,30.16,29.95,,,,16,9,23,0.00,,,307